Bookmark and Share
Track history (hours):
 

Tasman

Last reported at 2014-Apr-20 23:31 UTC. Time now 2014-Apr-20 23:49 UTC.
Position N 51°55' E 004°25'.

Length 90 m; draft 4 m.

Type: Ship. MMSI: 23617000.

NotesDate/timePositionNaut miles runAvg speedWind from/ knotsBaromVisibWave heightAir tempDewpointWater temp
2014-Apr-20 23:31N 51°55' E 004°25'0 0.0
2014-Apr-20 22:30N 51°55' E 004°25'0 0.0
2014-Apr-20 21:33N 51°55' E 004°25'0 0.0
2014-Apr-20 20:32N 51°55' E 004°25'0 0.0
2014-Apr-20 19:29N 51°55' E 004°25'0 0.0
2014-Apr-20 18:32N 51°55' E 004°25'0 0.0
2014-Apr-20 17:28N 51°55' E 004°25'0 0.0
2014-Apr-20 16:31N 51°55' E 004°25'0 0.0
2014-Apr-20 15:30N 51°55' E 004°25'0 0.0
2014-Apr-20 14:33N 51°55' E 004°25'0 0.0
2014-Apr-20 13:32N 51°55' E 004°25'0 0.0
2014-Apr-20 12:32N 51°55' E 004°25'0 0.0
2014-Apr-20 11:31N 51°55' E 004°25'0 0.0
2014-Apr-20 10:28N 51°55' E 004°25'0 0.0
2014-Apr-20 09:22N 51°55' E 004°25'0 0.0
2014-Apr-20 08:33N 51°55' E 004°25'0 0.0
2014-Apr-20 07:33N 51°55' E 004°25'1 0.5
2014-Apr-20 06:34N 51°54' E 004°25'1010.4
2014-Apr-20 05:33N 51°58' E 004°09'1210.7
2014-Apr-20 04:28N 51°59' E 003°50'2411.1
2014-Apr-20 02:18N 51°52' E 003°13'7 9.7
2014-Apr-20 01:32N 51°50' E 003°01'9 8.9
2014-Apr-20 00:33N 51°48' E 002°48'8 8.2
2014-Apr-19 23:33N 51°44' E 002°36'8 7.9
2014-Apr-19 22:33N 51°38' E 002°28'8 8.0
2014-Apr-19 21:33N 51°32' E 002°19'8 7.6
2014-Apr-19 20:33N 51°25' E 002°13'12 8.1
2014-Apr-19 19:06N 51°15' E 002°04'4 8.2
2014-Apr-19 18:33N 51°12' E 001°58'132 9.2
2014-Apr-19 04:11N 50°14' W 001°08'4 5.9
2014-Apr-19 03:33N 50°14' W 001°14'263 8.2
2014-Apr-17 19:33N 51°31' W 007°52'1110.7
2014-Apr-17 18:33N 51°39' W 008°03'1110.7
2014-Apr-17 17:33N 51°47' W 008°16'6 6.1
2014-Apr-17 16:33N 51°52' W 008°20'4 3.7
2014-Apr-17 15:33N 51°54' W 008°25'0 0.0
2014-Apr-17 14:33N 51°54' W 008°25'0 0.0
2014-Apr-17 13:33N 51°54' W 008°25'0 0.0
2014-Apr-17 12:33N 51°54' W 008°25'0 0.0
2014-Apr-17 11:33N 51°54' W 008°25'0 0.0
2014-Apr-17 10:33N 51°54' W 008°25'0 0.0
2014-Apr-17 09:33N 51°54' W 008°25'0 0.0
2014-Apr-17 08:33N 51°54' W 008°25'0 0.0
2014-Apr-17 07:33N 51°54' W 008°25'0 0.0
2014-Apr-17 06:33N 51°54' W 008°25'0 0.0
2014-Apr-17 05:33N 51°54' W 008°25'0 0.0
2014-Apr-17 04:33N 51°54' W 008°25'0 0.0
2014-Apr-17 03:34N 51°54' W 008°25'0 0.0
2014-Apr-17 02:34N 51°54' W 008°25'0 0.0
2014-Apr-17 01:33N 51°54' W 008°25'0 0.0
2014-Apr-17 00:34N 51°54' W 008°25'0 0.0
2014-Apr-16 23:34N 51°54' W 008°25'0 0.0
2014-Apr-16 22:34N 51°54' W 008°25'0 0.0
2014-Apr-16 21:34N 51°54' W 008°25'0 0.0
2014-Apr-16 20:34N 51°54' W 008°25'0 0.0
2014-Apr-16 19:34N 51°54' W 008°25'0 0.0
2014-Apr-16 18:34N 51°54' W 008°25'2 2.2
2014-Apr-16 17:34N 51°53' W 008°22'9 8.6
2014-Apr-16 16:33N 51°46' W 008°15'1212.3
2014-Apr-16 15:34N 51°43' W 007°55'1110.9
2014-Apr-16 14:33N 51°49' W 007°41'1212.3
2014-Apr-16 13:34N 51°53' W 007°22'1212.3
2014-Apr-16 12:33N 51°57' W 007°03'1212.4
2014-Apr-16 11:33N 52°01' W 006°44'12911.5
2014-Apr-16 00:23N 53°34' W 004°18'1113.1
2014-Apr-15 23:32N 53°34' W 003°59'1212.0
2014-Apr-15 22:33N 53°34' W 003°40'1111.3
2014-Apr-15 21:33N 53°32' W 003°21'10 9.7
2014-Apr-15 20:33N 53°30' W 003°05'4 3.5
2014-Apr-15 19:33N 53°27' W 003°01'0 0.2
2014-Apr-15 18:28N 53°27' W 003°01'0 0.0
2014-Apr-15 17:28N 53°27' W 003°01'0 0.0
2014-Apr-15 16:33N 53°27' W 003°01'0 0.0
2014-Apr-15 15:33N 53°27' W 003°01'0 0.0
2014-Apr-15 14:33N 53°27' W 003°01'0 0.0
2014-Apr-15 11:32N 53°27' W 003°01'0 0.0
2014-Apr-15 09:31N 53°27' W 003°01'0 0.0
2014-Apr-15 08:31N 53°27' W 003°01'0 0.0
2014-Apr-15 07:30N 53°27' W 003°01'0 0.0
2014-Apr-15 03:34N 53°27' W 003°01'0 0.1
2014-Apr-15 01:34N 53°27' W 003°01'0 0.2
2014-Apr-15 00:34N 53°27' W 003°01'6 5.7
2014-Apr-14 23:34N 53°31' W 003°07'7 7.2
2014-Apr-14 22:34N 53°31' W 003°19'  
2014-Apr-11 08:33N 39°07' W 009°52'2911.7
2014-Apr-11 06:07N 38°38' W 009°51'3011.8
2014-Apr-11 03:32N 38°09' W 009°41'1211.8
2014-Apr-11 02:33N 37°58' W 009°38'1212.0
2014-Apr-11 01:33N 37°46' W 009°34'1211.8
2014-Apr-11 00:33N 37°34' W 009°31'  

Dump ship's entire track history

sailing weather and tide predictions

Tasman — ZDKI2 — position and weather